This is the latest recevied weather packets stored in our database for station/object VA3BOO. If no packets are shown the sender has not sent any weather packets the latest 10 day(s).
| Time | Temp. | Humidity | Pressure | Rain* | Wind** | Luminosity | Snow |
|---|---|---|---|---|---|---|---|
| 1777592705 | 8.33° C | 78% | 1010.5 hPa | 0 mm | - | 5 W/m² | - |
| 1777592404 | 8.33° C | 78% | 1010.5 hPa | 0 mm | - | 6 W/m² | - |
| 1777592105 | 8.33° C | 81% | 1010.5 hPa | 0 mm | - | 7 W/m² | - |
| 1777591804 | 8.33° C | 82% | 1010.4 hPa | 0 mm | - | 8 W/m² | - |
| 1777591504 | 8.33° C | 82% | 1010.2 hPa | 0 mm | - | 10 W/m² | - |
| 1777591204 | 8.33° C | 80% | 1010.3 hPa | 0 mm | - | 13 W/m² | - |
| 1777590904 | 8.33° C | 81% | 1010.3 hPa | 0 mm | - | 19 W/m² | - |
| 1777590604 | 8.33° C | 81% | 1010.2 hPa | 0 mm | - | 19 W/m² | - |
| 1777590304 | 8.89° C | 81% | 1010.3 hPa | 0 mm | - | 20 W/m² | - |
| 1777590004 | 8.89° C | 80% | 1010.3 hPa | 0 mm | - | 21 W/m² | - |
| 1777589704 | 8.89° C | 80% | 1010.2 hPa | 0 mm | - | 27 W/m² | - |
| 1777589404 | 8.89° C | 78% | 1010.1 hPa | 0 mm | - | 40 W/m² | - |
| 1777589104 | 8.89° C | 79% | 1010 hPa | 0 mm | - | 53 W/m² | - |
| 1777588804 | 8.33° C | 79% | 1010.1 hPa | 0 mm | - | 68 W/m² | - |
| 1777588504 | 8.33° C | 79% | 1010 hPa | 0 mm | - | 72 W/m² | - |
| 1777588204 | 8.33° C | 79% | 1010 hPa | 0 mm | - | 67 W/m² | - |
| 1777587904 | 8.33° C | 78% | 1009.9 hPa | 0 mm | - | 66 W/m² | - |
| 1777587604 | 8.33° C | 81% | 1009.9 hPa | 0 mm | - | 52 W/m² | - |
| 1777587304 | 8.33° C | 83% | 1010.1 hPa | 0 mm | - | 59 W/m² | - |
| 1777587004 | 8.33° C | 82% | 1009.7 hPa | 0 mm | - | 73 W/m² | - |
| 1777586704 | 8.33° C | 82% | 1010 hPa | 0 mm | - | 60 W/m² | - |
| 1777586404 | 8.33° C | 81% | 1009.9 hPa | 0 mm | - | 31 W/m² | - |
| 1777586104 | 8.89° C | 82% | 1009.8 hPa | 0 mm | - | 64 W/m² | - |
| 1777585804 | 8.89° C | 81% | 1009.8 hPa | 0 mm | - | 85 W/m² | - |
| 1777585504 | 8.89° C | 84% | 1009.7 hPa | 0 mm | - | 58 W/m² | - |
* Rain latest hour (hover to see other rain measurements)
** Current wind speed in m/s (hover to see current wind gust speed)